User: anonymous   Login
Location: Ostrava
(49.8330°N, 18.2830°E)
Time: 19:34:53
(UTC+02:00)
Language:

Explorer 7 - Orbit

View from above orbital plane
View from above orbital plane
View from above satellite
View from above satellite

Ground track
Ground track

The orbit data is extracted from the following two-line orbital elements,

1 00022U 59009A   17228.52563458  .00000198  00000-0  38227-4 0  9999
2 00022  50.2849 279.5746 0142124 263.3023  95.1732 14.94191826 70376
Epoch (UTC): 16 August 2017 12:36:54
Eccentricity: 0.0142124
inclination: 50.2849°
perigee height: 486 km
apogee height: 684 km
right ascension of ascending node: 279.5746°
argument of perigee: 263.3023°
revolutions per day: 14.94191826
mean anomaly at epoch: 95.1732°
orbit number at epoch: 7037

The dashed part of the orbit path shows where the satellite is in the earth's shadow,  

DLR